Time,TemperatureF,DewpointF,PressureIn,WindDirection,WindDirectionDegrees,WindSpeedMPH,WindSpeedGustMPH,Humidity,HourlyPrecipIn,Conditions,Clouds,dailyrainin,SolarRadiationWatts/m^2,SoftwareType,DateUTC
2013-01-11 00:04:00,39.0,28.0,-100.00,North,349,2.0,4.0,64,0.00,,,0.00,0.000000,,2013-01-11 05:04:00,
2013-01-11 00:33:00,38.0,29.0,-100.00,NNE,22,2.0,4.0,70,0.00,,,0.00,0.000000,,2013-01-11 05:33:00,
2013-01-11 00:43:00,38.0,29.0,-100.00,NNE,22,2.0,4.0,70,0.00,,,0.00,0.000000,,2013-01-11 05:43:00,
2013-01-11 00:53:00,38.0,29.0,-100.00,NNE,22,2.0,4.0,70,0.00,,,0.00,0.000000,,2013-01-11 05:53:00,
2013-01-11 01:03:00,38.0,29.0,-100.00,NNE,22,2.0,4.0,70,0.00,,,0.00,0.000000,,2013-01-11 06:03:00,
2013-01-11 01:12:00,38.0,29.0,-100.00,NNE,22,2.0,4.0,70,0.00,,,0.00,0.000000,,2013-01-11 06:12:00,
2013-01-11 01:33:00,39.0,29.0,-100.00,ENE,66,4.0,5.0,68,0.00,,,0.00,0.000000,,2013-01-11 06:33:00,
2013-01-11 01:42:00,39.0,29.0,-100.00,ENE,66,4.0,5.0,68,0.00,,,0.00,0.000000,,2013-01-11 06:42:00,
2013-01-11 01:52:00,39.0,29.0,-100.00,ENE,66,4.0,5.0,68,0.00,,,0.00,0.000000,,2013-01-11 06:52:00,
2013-01-11 02:02:00,39.0,29.0,-100.00,ENE,66,4.0,5.0,68,0.00,,,0.00,0.000000,,2013-01-11 07:02:00,
2013-01-11 02:12:00,39.0,29.0,-100.00,ENE,66,4.0,5.0,68,0.00,,,0.00,0.000000,,2013-01-11 07:12:00,
2013-01-11 02:42:00,37.0,26.0,-100.00,East,98,2.0,5.0,65,0.00,,,0.00,0.000000,,2013-01-11 07:42:00,
2013-01-11 02:53:00,37.0,26.0,-100.00,East,98,2.0,5.0,65,0.00,,,0.00,0.000000,,2013-01-11 07:53:00,
2013-01-11 03:02:00,37.0,26.0,-100.00,East,98,2.0,5.0,65,0.00,,,0.00,0.000000,,2013-01-11 08:02:00,
2013-01-11 03:12:00,37.0,26.0,-100.00,East,98,2.0,5.0,65,0.00,,,0.00,0.000000,,2013-01-11 08:12:00,
2013-01-11 03:42:00,37.0,27.0,-100.00,NW,308,2.0,3.0,68,0.00,,,0.00,0.000000,,2013-01-11 08:42:00,
2013-01-11 03:53:00,37.0,27.0,-100.00,NW,308,2.0,3.0,68,0.00,,,0.00,0.000000,,2013-01-11 08:53:00,
2013-01-11 04:02:00,37.0,27.0,-100.00,NW,308,2.0,3.0,68,0.00,,,0.00,0.000000,,2013-01-11 09:02:00,
2013-01-11 04:12:00,37.0,27.0,-100.00,NW,308,2.0,3.0,68,0.00,,,0.00,0.000000,,2013-01-11 09:12:00,
2013-01-11 04:32:00,36.0,30.0,-100.00,NW,308,2.0,4.0,78,0.00,,,0.00,0.000000,,2013-01-11 09:32:00,
2013-01-11 04:42:00,36.0,30.0,-100.00,NW,308,2.0,4.0,78,0.00,,,0.00,0.000000,,2013-01-11 09:42:00,
2013-01-11 04:52:00,36.0,30.0,-100.00,NW,308,2.0,4.0,78,0.00,,,0.00,0.000000,,2013-01-11 09:52:00,
2013-01-11 05:02:00,36.0,30.0,-100.00,NW,308,2.0,4.0,78,0.00,,,0.00,0.000000,,2013-01-11 10:02:00,
2013-01-11 05:12:00,36.0,30.0,-100.00,NW,308,2.0,4.0,78,0.00,,,0.00,0.000000,,2013-01-11 10:12:00,
2013-01-11 05:43:00,35.0,28.0,-100.00,NE,42,2.0,4.0,76,0.00,,,0.00,0.000000,,2013-01-11 10:43:00,
2013-01-11 05:53:00,35.0,28.0,-100.00,NE,42,2.0,4.0,76,0.00,,,0.00,0.000000,,2013-01-11 10:53:00,
2013-01-11 06:03:00,35.0,28.0,-100.00,NE,42,2.0,4.0,76,0.00,,,0.00,0.000000,,2013-01-11 11:03:00,
2013-01-11 06:12:00,35.0,28.0,-100.00,NE,42,2.0,4.0,76,0.00,,,0.00,0.000000,,2013-01-11 11:12:00,
2013-01-11 06:33:00,35.0,30.0,-100.00,East,92,2.0,4.0,81,0.00,,,0.00,0.000000,,2013-01-11 11:33:00,
2013-01-11 06:43:00,35.0,30.0,-100.00,East,92,2.0,4.0,81,0.00,,,0.00,0.000000,,2013-01-11 11:43:00,
2013-01-11 06:53:00,35.0,30.0,-100.00,East,92,2.0,4.0,81,0.00,,,0.00,0.000000,,2013-01-11 11:53:00,
2013-01-11 07:03:00,35.0,30.0,-100.00,East,92,2.0,4.0,81,0.00,,,0.00,0.000000,,2013-01-11 12:03:00,
2013-01-11 07:12:00,35.0,30.0,-100.00,East,92,2.0,4.0,81,0.00,,,0.00,0.000000,,2013-01-11 12:12:00,
2013-01-11 07:13:00,38.0,28.0,-100.00,SE,132,3.0,6.0,66,0.00,,,-99.99,0.000000,,2013-01-11 12:13:00,
2013-01-11 07:33:00,38.0,28.0,-100.00,SE,132,3.0,6.0,66,0.00,,,-99.99,0.000000,,2013-01-11 12:33:00,
2013-01-11 07:43:00,38.0,28.0,-100.00,SE,132,3.0,6.0,66,0.00,,,-99.99,0.000000,,2013-01-11 12:43:00,
2013-01-11 07:53:00,38.0,28.0,-100.00,SE,132,3.0,6.0,66,0.00,,,-99.99,0.000000,,2013-01-11 12:53:00,
2013-01-11 08:03:00,38.0,28.0,-100.00,SE,132,3.0,6.0,66,0.00,,,-99.99,0.000000,,2013-01-11 13:03:00,
2013-01-11 08:43:00,40.0,30.0,-100.00,ESE,121,6.0,9.0,66,0.00,,,-99.99,4.000000,,2013-01-11 13:43:00,
2013-01-11 08:53:00,40.0,30.0,-100.00,ESE,121,6.0,9.0,66,0.00,,,-99.99,4.000000,,2013-01-11 13:53:00,
2013-01-11 09:03:00,40.0,30.0,-100.00,ESE,121,6.0,9.0,66,0.00,,,-99.99,4.000000,,2013-01-11 14:03:00,
2013-01-11 09:12:00,40.0,30.0,-100.00,ESE,121,6.0,9.0,66,0.00,,,-99.99,4.000000,,2013-01-11 14:12:00,
2013-01-11 09:13:00,41.0,31.0,-100.00,SE,144,7.0,12.0,67,0.00,,,0.00,44.000000,,2013-01-11 14:13:00,
2013-01-11 09:33:00,41.0,31.0,-100.00,SE,144,7.0,12.0,67,0.00,,,0.00,44.000000,,2013-01-11 14:33:00,
2013-01-11 09:43:00,41.0,31.0,-100.00,SE,144,7.0,12.0,67,0.00,,,0.00,44.000000,,2013-01-11 14:43:00,
2013-01-11 09:53:00,41.0,31.0,-100.00,SE,144,7.0,12.0,67,0.00,,,0.00,44.000000,,2013-01-11 14:53:00,
2013-01-11 10:03:00,41.0,31.0,-100.00,SE,144,7.0,12.0,67,0.00,,,0.00,44.000000,,2013-01-11 15:03:00,
2013-01-11 10:13:00,42.0,31.0,-100.00,SSE,157,5.0,11.0,64,0.00,,,0.00,76.000000,,2013-01-11 15:13:00,
2013-01-11 10:43:00,42.0,31.0,-100.00,SSE,157,5.0,11.0,64,0.00,,,0.00,76.000000,,2013-01-11 15:43:00,
2013-01-11 10:53:00,42.0,31.0,-100.00,SSE,157,5.0,11.0,64,0.00,,,0.00,76.000000,,2013-01-11 15:53:00,
2013-01-11 11:03:00,42.0,31.0,-100.00,SSE,157,5.0,11.0,64,0.00,,,0.00,76.000000,,2013-01-11 16:03:00,
2013-01-11 11:43:00,45.0,31.0,-100.00,SSE,155,9.0,12.0,57,0.00,,,0.00,157.000000,,2013-01-11 16:43:00,
2013-01-11 11:53:00,45.0,31.0,-100.00,SSE,155,9.0,12.0,57,0.00,,,0.00,157.000000,,2013-01-11 16:53:00,
2013-01-11 12:03:00,45.0,31.0,-100.00,SSE,155,9.0,12.0,57,0.00,,,0.00,157.000000,,2013-01-11 17:03:00,
2013-01-11 12:12:00,45.0,31.0,-100.00,SSE,155,9.0,12.0,57,0.00,,,0.00,157.000000,,2013-01-11 17:12:00,
2013-01-11 12:13:00,47.0,31.0,-100.00,SSE,150,8.0,13.0,53,0.00,,,0.00,232.000000,,2013-01-11 17:13:00,
2013-01-11 12:43:00,47.0,31.0,-100.00,SSE,150,8.0,13.0,53,0.00,,,0.00,232.000000,,2013-01-11 17:43:00,
2013-01-11 12:53:00,47.0,31.0,-100.00,SSE,150,8.0,13.0,53,0.00,,,0.00,232.000000,,2013-01-11 17:53:00,
2013-01-11 13:04:00,47.0,31.0,-100.00,SSE,150,8.0,13.0,53,0.00,,,0.00,232.000000,,2013-01-11 18:04:00,
2013-01-11 13:13:00,46.0,35.0,-100.00,SE,135,7.0,11.0,65,0.00,,,0.00,71.000000,,2013-01-11 18:13:00,
2013-01-11 13:43:00,46.0,35.0,-100.00,SE,135,7.0,11.0,65,0.00,,,0.00,71.000000,,2013-01-11 18:43:00,
2013-01-11 13:53:00,46.0,35.0,-100.00,SE,135,7.0,11.0,65,0.00,,,0.00,71.000000,,2013-01-11 18:53:00,
2013-01-11 14:03:00,46.0,35.0,-100.00,SE,135,7.0,11.0,65,0.00,,,0.00,71.000000,,2013-01-11 19:03:00,
2013-01-11 14:13:00,45.0,35.0,-100.00,SE,131,5.0,12.0,67,0.02,,,0.02,59.000000,,2013-01-11 19:13:00,
2013-01-11 14:43:00,45.0,35.0,-100.00,SE,131,5.0,12.0,67,0.02,,,0.02,59.000000,,2013-01-11 19:43:00,
2013-01-11 14:54:00,45.0,35.0,-100.00,SE,131,5.0,12.0,67,0.02,,,0.02,59.000000,,2013-01-11 19:54:00,
2013-01-11 15:03:00,45.0,35.0,-100.00,SE,131,5.0,12.0,67,0.02,,,0.02,59.000000,,2013-01-11 20:03:00,
2013-01-11 15:13:00,44.0,39.0,-100.00,SE,145,5.0,12.0,84,0.05,,,0.07,32.000000,,2013-01-11 20:13:00,
2013-01-11 15:33:00,44.0,39.0,-100.00,SE,145,5.0,12.0,84,0.05,,,0.07,32.000000,,2013-01-11 20:33:00,
2013-01-11 15:43:00,44.0,39.0,-100.00,SE,145,5.0,12.0,84,0.05,,,0.07,32.000000,,2013-01-11 20:43:00,
2013-01-11 15:53:00,44.0,39.0,-100.00,SE,145,5.0,12.0,84,0.05,,,0.07,32.000000,,2013-01-11 20:53:00,
2013-01-11 16:03:00,44.0,39.0,-100.00,SE,145,5.0,12.0,84,0.05,,,0.07,32.000000,,2013-01-11 21:03:00,
2013-01-11 16:33:00,43.0,43.0,-100.00,SE,145,6.0,10.0,100,0.02,,,0.09,24.000000,,2013-01-11 21:33:00,
2013-01-11 16:43:00,43.0,43.0,-100.00,SE,145,6.0,10.0,100,0.02,,,0.09,24.000000,,2013-01-11 21:43:00,
2013-01-11 16:53:00,43.0,43.0,-100.00,SE,145,6.0,10.0,100,0.02,,,0.09,24.000000,,2013-01-11 21:53:00,
2013-01-11 17:03:00,43.0,43.0,-100.00,SE,145,6.0,10.0,100,0.02,,,0.09,24.000000,,2013-01-11 22:03:00,
2013-01-11 17:12:00,43.0,43.0,-100.00,SE,145,6.0,10.0,100,0.02,,,0.09,24.000000,,2013-01-11 22:12:00,
2013-01-11 17:13:00,43.0,43.0,-100.00,SE,140,5.0,9.0,100,0.00,,,0.09,9.000000,,2013-01-11 22:13:00,
2013-01-11 17:33:00,43.0,43.0,-100.00,SE,140,5.0,9.0,100,0.00,,,0.09,9.000000,,2013-01-11 22:33:00,
2013-01-11 17:43:00,43.0,43.0,-100.00,SE,140,5.0,9.0,100,0.00,,,0.09,9.000000,,2013-01-11 22:43:00,
2013-01-11 17:53:00,43.0,43.0,-100.00,SE,140,5.0,9.0,100,0.00,,,0.09,9.000000,,2013-01-11 22:53:00,
2013-01-11 18:02:00,43.0,43.0,-100.00,SE,140,5.0,9.0,100,0.00,,,0.09,9.000000,,2013-01-11 23:02:00,
2013-01-11 18:33:00,42.0,42.0,-100.00,NE,42,3.0,7.0,100,0.00,,,0.09,0.000000,,2013-01-11 23:33:00,
2013-01-11 18:43:00,42.0,42.0,-100.00,NE,42,3.0,7.0,100,0.00,,,0.09,0.000000,,2013-01-11 23:43:00,
2013-01-11 18:54:00,42.0,42.0,-100.00,NE,42,3.0,7.0,100,0.00,,,0.09,0.000000,,2013-01-11 23:54:00,
2013-01-11 19:03:00,42.0,42.0,-100.00,NE,42,3.0,7.0,100,0.00,,,0.09,0.000000,,2013-01-12 00:03:00,
2013-01-11 19:12:00,42.0,42.0,-100.00,NE,42,3.0,7.0,100,0.00,,,0.09,0.000000,,2013-01-12 00:12:00,
2013-01-11 19:33:00,42.0,42.0,-100.00,NNE,21,3.0,5.0,100,0.00,,,0.09,0.000000,,2013-01-12 00:33:00,
2013-01-11 19:43:00,42.0,42.0,-100.00,NNE,21,3.0,5.0,100,0.00,,,0.09,0.000000,,2013-01-12 00:43:00,
2013-01-11 19:53:00,42.0,42.0,-100.00,NNE,21,3.0,5.0,100,0.00,,,0.09,0.000000,,2013-01-12 00:53:00,
2013-01-11 20:03:00,42.0,42.0,-100.00,NNE,21,3.0,5.0,100,0.00,,,0.09,0.000000,,2013-01-12 01:03:00,
2013-01-11 20:12:00,42.0,42.0,-100.00,NNE,21,3.0,5.0,100,0.00,,,0.09,0.000000,,2013-01-12 01:12:00,
2013-01-11 20:33:00,42.0,42.0,-100.00,North,349,3.0,5.0,100,0.00,,,0.09,0.000000,,2013-01-12 01:33:00,
2013-01-11 20:43:00,42.0,42.0,-100.00,North,349,3.0,5.0,100,0.00,,,0.09,0.000000,,2013-01-12 01:43:00,
2013-01-11 20:53:00,42.0,42.0,-100.00,North,349,3.0,5.0,100,0.00,,,0.09,0.000000,,2013-01-12 01:53:00,
2013-01-11 21:02:00,42.0,42.0,-100.00,North,349,3.0,5.0,100,0.00,,,0.09,0.000000,,2013-01-12 02:02:00,
2013-01-11 21:12:00,42.0,42.0,-100.00,North,349,3.0,5.0,100,0.00,,,0.09,0.000000,,2013-01-12 02:12:00,
2013-01-11 21:33:00,41.0,41.0,-100.00,NNE,21,3.0,5.0,100,0.00,,,0.09,0.000000,,2013-01-12 02:33:00,
2013-01-11 21:43:00,41.0,41.0,-100.00,NNE,21,3.0,5.0,100,0.00,,,0.09,0.000000,,2013-01-12 02:43:00,
2013-01-11 21:53:00,41.0,41.0,-100.00,NNE,21,3.0,5.0,100,0.00,,,0.09,0.000000,,2013-01-12 02:53:00,
2013-01-11 22:03:00,41.0,41.0,-100.00,NNE,21,3.0,5.0,100,0.00,,,0.09,0.000000,,2013-01-12 03:03:00,
2013-01-11 22:12:00,41.0,41.0,-100.00,NNE,21,3.0,5.0,100,0.00,,,0.09,0.000000,,2013-01-12 03:12:00,
2013-01-11 22:33:00,40.0,40.0,-100.00,North,349,3.0,7.0,100,0.00,,,0.09,0.000000,,2013-01-12 03:33:00,
2013-01-11 22:43:00,40.0,40.0,-100.00,North,349,3.0,7.0,100,0.00,,,0.09,0.000000,,2013-01-12 03:43:00,
2013-01-11 22:53:00,40.0,40.0,-100.00,North,349,3.0,7.0,100,0.00,,,0.09,0.000000,,2013-01-12 03:53:00,
2013-01-11 23:02:00,40.0,40.0,-100.00,North,349,3.0,7.0,100,0.00,,,0.09,0.000000,,2013-01-12 04:02:00,
2013-01-11 23:12:00,40.0,40.0,-100.00,North,349,3.0,7.0,100,0.00,,,0.09,0.000000,,2013-01-12 04:12:00,
2013-01-11 23:33:00,40.0,40.0,-100.00,North,357,3.0,7.0,100,0.00,,,0.09,0.000000,,2013-01-12 04:33:00,
2013-01-11 23:43:00,40.0,40.0,-100.00,North,357,3.0,7.0,100,0.00,,,0.09,0.000000,,2013-01-12 04:43:00,
2013-01-11 23:52:00,40.0,40.0,-100.00,North,357,3.0,7.0,100,0.00,,,0.09,0.000000,,2013-01-12 04:52:00,